| time (UTC) | temp C | wind direction | speed KPH | gust KPH | rain 1hr cm | rain 24hr cm | rain mn cm | humidity % | barometer mb |
| 20260506160023 | 15 | 93 | 6.4 | 12.9 | 0.00 | 0.00 | 0.00 | 57 | 1030.4 |
| 20260506155002 | 15 | 255 | 1.6 | 3.2 | 0.00 | 0.00 | 0.00 | 56 | 1030.3 |
| 20260506154001 | 15 | 176 | 1.6 | 4.8 | 0.00 | 0.00 | 0.00 | 56 | 1030.3 |
| 20260506153023 | 15 | 0 | 1.6 | 4.8 | 0.00 | 0.00 | 0.00 | 55 | 1030.3 |
| 20260506152001 | 15 | 12 | 3.2 | 4.8 | 0.00 | 0.00 | 0.00 | 57 | 1030.3 |
| 20260506151002 | 15 | 242 | 3.2 | 4.8 | 0.00 | 0.00 | 0.00 | 57 | 1030.4 |
| 20260506150023 | 15 | 153 | 1.6 | 3.2 | 0.00 | 0.00 | 0.00 | 58 | 1030.5 |
| 20260506144002 | 15 | 254 | 1.6 | 1.6 | 0.00 | 0.00 | 0.00 | 58 | 1030.4 |
| 20260506143001 | 15 | 44 | 1.6 | 1.6 | 0.00 | 0.00 | 0.00 | 57 | 1030.4 |
| 20260506142002 | 16 | 236 | 1.6 | 4.8 | 0.00 | 0.00 | 0.00 | 55 | 1030.4 |
| 20260506141002 | 15 | 52 | 6.4 | 12.9 | 0.00 | 0.00 | 0.00 | 56 | 1030.3 |
| 20260506140002 | 16 | 157 | 1.6 | 4.8 | 0.00 | 0.00 | 0.00 | 54 | 1030.3 |
| 20260506135002 | 17 | 44 | 3.2 | 4.8 | 0.00 | 0.00 | 0.00 | 52 | 1030.2 |
| 20260506134002 | 17 | 130 | 1.6 | 4.8 | 0.00 | 0.00 | 0.00 | 52 | 1030.1 |
| 20260506133002 | 17 | 111 | 3.2 | 8.0 | 0.00 | 0.00 | 0.00 | 51 | 1030.1 |
| 20260506132001 | 17 | 64 | 4.8 | 11.3 | 0.00 | 0.00 | 0.00 | 52 | 1030.1 |
| 20260506130001 | 17 | 112 | 1.6 | 3.2 | 0.00 | 0.00 | 0.00 | 53 | 1030.0 |
| 20260506125002 | 17 | 103 | 3.2 | 11.3 | 0.00 | 0.00 | 0.00 | 53 | 1030.0 |
| 20260506124002 | 16 | 153 | 3.2 | 8.0 | 0.00 | 0.00 | 0.00 | 56 | 1029.9 |
| 20260506121002 | 15 | 176 | 1.6 | 1.6 | 0.00 | 0.00 | 0.00 | 62 | 1029.9 |
| 20260506115002 | 15 | 170 | 0.0 | 0.0 | 0.00 | 0.00 | 0.00 | 65 | 1029.6 |
| 20260506114002 | 15 | 224 | 1.6 | 3.2 | 0.00 | 0.00 | 0.00 | 65 | 1029.5 |
| 20260506113002 | 15 | 234 | 1.6 | 1.6 | 0.00 | 0.00 | 0.00 | 63 | 1029.5 |
| 20260506112023 | 15 | 226 | 1.6 | 1.6 | 0.00 | 0.00 | 0.00 | 62 | 1029.4 |
| 20260506111001 | 16 | 150 | 0.0 | 0.0 | 0.00 | 0.00 | 0.00 | 62 | 1029.3 |
| 20260506110002 | 16 | 234 | 0.0 | 0.0 | 0.00 | 0.00 | 0.00 | 60 | 1029.2 |
| 20260506105002 | 16 | 156 | 0.0 | 0.0 | 0.00 | 0.00 | 0.00 | 59 | 1029.2 |
| 20260506104001 | 16 | 199 | 1.6 | 4.8 | 0.00 | 0.00 | 0.00 | 59 | 1029.2 |
| 20260506103002 | 17 | 194 | 1.6 | 4.8 | 0.00 | 0.00 | 0.00 | 59 | 1029.2 |
| 20260506102002 | 17 | 210 | 1.6 | 3.2 | 0.00 | 0.00 | 0.00 | 57 | 1029.1 |
| 20260506101007 | 17 | 199 | 0.0 | 0.0 | 0.00 | 0.00 | 0.00 | 56 | 1029.0 |
| 20260506100003 | 18 | 177 | 1.6 | 1.6 | 0.00 | 0.00 | 0.00 | 54 | 1029.0 |
| 20260506095002 | 18 | 114 | 1.6 | 3.2 | 0.00 | 0.00 | 0.00 | 53 | 1028.8 |
| 20260506094023 | 18 | 121 | 3.2 | 4.8 | 0.00 | 0.00 | 0.00 | 52 | 1028.7 |
| 20260506093002 | 19 | 116 | 3.2 | 8.0 | 0.00 | 0.00 | 0.00 | 51 | 1028.6 |
| 20260506092001 | 19 | 107 | 3.2 | 4.8 | 0.00 | 0.00 | 0.00 | 51 | 1028.5 |
| 20260506091002 | 20 | 112 | 4.8 | 9.7 | 0.00 | 0.00 | 0.00 | 50 | 1028.4 |
| 20260506090023 | 20 | 107 | 3.2 | 4.8 | 0.00 | 0.00 | 0.00 | 50 | 1028.4 |
| 20260506085001 | 20 | 124 | 3.2 | 4.8 | 0.00 | 0.00 | 0.00 | 49 | 1028.3 |
| 20260506084001 | 20 | 98 | 4.8 | 11.3 | 0.00 | 0.00 | 0.00 | 48 | 1028.3 |
| 20260506083002 | 20 | 84 | 4.8 | 8.0 | 0.00 | 0.00 | 0.00 | 48 | 1028.3 |
| 20260506082023 | 20 | 92 | 4.8 | 9.7 | 0.00 | 0.00 | 0.00 | 50 | 1028.3 |
| 20260506081002 | 20 | 121 | 1.6 | 3.2 | 0.00 | 0.00 | 0.00 | 49 | 1028.3 |
| 20260506073002 | 20 | 96 | 8.0 | 12.9 | 0.00 | 0.00 | 0.00 | 48 | 1028.3 |
| 20260506072002 | 21 | 96 | 8.0 | 12.9 | 0.00 | 0.00 | 0.00 | 49 | 1028.3 |
| 20260506071002 | 21 | 90 | 6.4 | 19.3 | 0.00 | 0.00 | 0.00 | 49 | 1028.2 |
| 20260506062002 | 21 | 114 | 3.2 | 9.7 | 0.00 | 0.00 | 0.00 | 48 | 1028.2 |
| 20260506061022 | 21 | 74 | 4.8 | 11.3 | 0.00 | 0.00 | 0.00 | 47 | 1028.2 |
| 20260506051002 | 21 | 99 | 8.0 | 22.5 | 0.00 | 0.00 | 0.00 | 48 | 1028.4 |
| 20260506045002 | 21 | 105 | 8.0 | 16.1 | 0.00 | 0.00 | 0.00 | 49 | 1028.6 |
| 20260506044002 | 21 | 28 | 6.4 | 11.3 | 0.00 | 0.00 | 0.00 | 49 | 1028.8 |
| 20260506043002 | 21 | 34 | 6.4 | 11.3 | 0.00 | 0.00 | 0.00 | 49 | 1028.9 |
| 20260506041002 | 21 | 32 | 6.4 | 11.3 | 0.00 | 0.00 | 0.00 | 50 | 1029.3 |
| 20260506040002 | 20 | 32 | 6.4 | 12.9 | 0.00 | 0.00 | 0.00 | 50 | 1029.5 |
| 20260506035023 | 20 | 28 | 4.8 | 9.7 | 0.00 | 0.00 | 0.00 | 52 | 1029.5 |
| 20260506034003 | 20 | 74 | 6.4 | 14.5 | 0.00 | 0.00 | 0.00 | 52 | 1029.6 |
| 20260506033002 | 20 | 76 | 8.0 | 12.9 | 0.00 | 0.00 | 0.00 | 52 | 1029.7 |
| 20260506032002 | 20 | 94 | 6.4 | 14.5 | 0.00 | 0.00 | 0.00 | 52 | 1029.8 |
| 20260506031002 | 20 | 76 | 4.8 | 8.0 | 0.00 | 0.00 | 0.00 | 54 | 1029.9 |
| 20260506030002 | 19 | 98 | 6.4 | 11.3 | 0.00 | 0.00 | 0.00 | 54 | 1030.0 |
| 20260506025002 | 19 | 60 | 3.2 | 11.3 | 0.00 | 0.00 | 0.00 | 55 | 1030.0 |
| 20260506024002 | 18 | 2 | 8.0 | 19.3 | 0.00 | 0.00 | 0.00 | 55 | 1030.1 |
| 20260506023002 | 18 | 96 | 6.4 | 12.9 | 0.00 | 0.00 | 0.00 | 55 | 1030.2 |
| 20260506022002 | 18 | 18 | 4.8 | 8.0 | 0.00 | 0.00 | 0.00 | 56 | 1030.3 |
| 20260506021023 | 18 | 44 | 4.8 | 11.3 | 0.00 | 0.00 | 0.00 | 57 | 1030.4 |
| 20260506020023 | 17 | 92 | 1.6 | 4.8 | 0.00 | 0.00 | 0.00 | 60 | 1030.4 |
| 20260506014003 | 17 | 11 | 4.8 | 12.9 | 0.00 | 0.00 | 0.00 | 61 | 1030.4 |
| 20260506013002 | 17 | 21 | 4.8 | 11.3 | 0.00 | 0.00 | 0.00 | 61 | 1030.4 |
| 20260506012003 | 16 | 34 | 4.8 | 12.9 | 0.00 | 0.00 | 0.00 | 61 | 1030.4 |
| 20260506011002 | 16 | 12 | 8.0 | 16.1 | 0.00 | 0.00 | 0.00 | 62 | 1030.4 |
| 20260506010024 | 16 | 69 | 4.8 | 9.7 | 0.00 | 0.00 | 0.00 | 64 | 1030.4 |
| 20260506005002 | 15 | 62 | 8.0 | 16.1 | 0.00 | 0.00 | 0.00 | 65 | 1030.2 |
| 20260506004002 | 15 | 83 | 6.4 | 12.9 | 0.00 | 0.00 | 0.00 | 66 | 1030.1 |
| 20260506003002 | 15 | 120 | 4.8 | 12.9 | 0.00 | 0.00 | 0.00 | 66 | 1029.9 |
| 20260506002002 | 15 | 76 | 6.4 | 16.1 | 0.00 | 0.00 | 0.00 | 67 | 1029.9 |
| 20260506001023 | 14 | 83 | 4.8 | 12.9 | 0.00 | 0.00 | 0.00 | 68 | 1029.7 |
| 20260506000002 | 14 | 82 | 12.9 | 22.5 | 0.00 | 0.00 | 0.00 | 68 | 1029.5 |
| 20260505235023 | 13 | 103 | 9.7 | 19.3 | 0.00 | 0.00 | 0.00 | 69 | 1029.4 |
| 20260505234002 | 13 | 53 | 8.0 | 14.5 | 0.00 | 0.00 | 0.00 | 70 | 1029.3 |
| 20260505233002 | 13 | 101 | 4.8 | 11.3 | 0.00 | 0.00 | 0.00 | 72 | 1029.2 |
| 20260505232002 | 13 | 189 | 4.8 | 9.7 | 0.00 | 0.00 | 0.00 | 72 | 1029.1 |
| 20260505231002 | 12 | 47 | 3.2 | 9.7 | 0.00 | 0.00 | 0.00 | 72 | 1029.1 |
| 20260505230002 | 12 | 252 | 4.8 | 11.3 | 0.00 | 0.00 | 0.00 | 73 | 1028.8 |
| 20260505225023 | 12 | 176 | 3.2 | 4.8 | 0.00 | 0.00 | 0.00 | 72 | 1028.9 |
| 20260505224002 | 12 | 113 | 3.2 | 9.7 | 0.00 | 0.00 | 0.00 | 72 | 1028.7 |
| 20260505223023 | 12 | 58 | 3.2 | 4.8 | 0.00 | 0.00 | 0.00 | 72 | 1028.5 |
| 20260505222002 | 12 | 91 | 3.2 | 9.7 | 0.00 | 0.00 | 0.00 | 72 | 1028.4 |
| 20260505221023 | 12 | 0 | 3.2 | 8.0 | 0.00 | 0.00 | 0.00 | 73 | 1028.3 |
| 20260505220002 | 12 | 179 | 3.2 | 9.7 | 0.00 | 0.00 | 0.00 | 72 | 1028.2 |
| 20260505215002 | 12 | 221 | 4.8 | 9.7 | 0.00 | 0.00 | 0.00 | 72 | 1028.1 |
| 20260505214002 | 12 | 37 | 4.8 | 11.3 | 0.00 | 0.00 | 0.00 | 73 | 1028.0 |
| 20260505213002 | 12 | 36 | 3.2 | 4.8 | 0.00 | 0.00 | 0.00 | 75 | 1027.9 |
| 20260505212002 | 12 | 22 | 1.6 | 3.2 | 0.00 | 0.00 | 0.00 | 76 | 1027.9 |
| 20260505211023 | 12 | 229 | 1.6 | 3.2 | 0.00 | 0.00 | 0.00 | 76 | 1027.9 |
| 20260505210002 | 12 | 207 | 1.6 | 9.7 | 0.00 | 0.00 | 0.00 | 75 | 1027.8 |
| 20260505205002 | 12 | 2 | 3.2 | 8.0 | 0.00 | 0.00 | 0.00 | 73 | 1027.7 |
| 20260505204002 | 12 | 226 | 3.2 | 8.0 | 0.00 | 0.00 | 0.00 | 72 | 1027.7 |
| 20260505202023 | 13 | 234 | 4.8 | 9.7 | 0.00 | 0.00 | 0.00 | 69 | 1027.5 |
| 20260505201002 | 13 | 214 | 3.2 | 9.7 | 0.00 | 0.00 | 0.00 | 70 | 1027.5 |
| 20260505200002 | 13 | 99 | 8.0 | 12.9 | 0.00 | 0.00 | 0.00 | 69 | 1027.4 |
| 20260505195023 | 13 | 130 | 8.0 | 14.5 | 0.00 | 0.00 | 0.00 | 69 | 1027.4 |
| 20260505194023 | 13 | 130 | 4.8 | 16.1 | 0.00 | 0.00 | 0.00 | 68 | 1027.4 |
| 20260505193002 | 13 | 175 | 4.8 | 9.7 | 0.00 | 0.00 | 0.00 | 68 | 1027.4 |
| 20260505192002 | 13 | 210 | 3.2 | 14.5 | 0.00 | 0.00 | 0.00 | 67 | 1027.4 |
| 20260505191023 | 13 | 162 | 3.2 | 8.0 | 0.00 | 0.00 | 0.00 | 66 | 1027.3 |
| 20260505185002 | 14 | 129 | 4.8 | 11.3 | 0.00 | 0.00 | 0.00 | 65 | 1027.3 |
| 20260505184023 | 13 | 89 | 8.0 | 14.5 | 0.00 | 0.00 | 0.00 | 66 | 1027.3 |
| 20260505183002 | 13 | 33 | 4.8 | 14.5 | 0.00 | 0.00 | 0.00 | 65 | 1027.5 |
| 20260505182002 | 14 | 231 | 4.8 | 11.3 | 0.00 | 0.00 | 0.00 | 63 | 1027.4 |
| 20260505181023 | 15 | 126 | 4.8 | 11.3 | 0.00 | 0.00 | 0.00 | 62 | 1027.3 |
| 20260505180002 | 15 | 167 | 3.2 | 4.8 | 0.00 | 0.00 | 0.00 | 61 | 1027.2 |
| 20260505175002 | 15 | 106 | 3.2 | 8.0 | 0.00 | 0.00 | 0.00 | 60 | 1027.3 |
| 20260505174023 | 15 | 93 | 8.0 | 12.9 | 0.00 | 0.00 | 0.00 | 60 | 1027.3 |
| 20260505173002 | 15 | 90 | 8.0 | 12.9 | 0.00 | 0.00 | 0.00 | 60 | 1027.2 |
| 20260505172022 | 15 | 91 | 8.0 | 14.5 | 0.00 | 0.00 | 0.00 | 59 | 1027.3 |
| 20260505171003 | 15 | 85 | 6.4 | 12.9 | 0.00 | 0.00 | 0.00 | 58 | 1027.2 |
| 20260505170001 | 16 | 115 | 3.2 | 8.0 | 0.00 | 0.00 | 0.00 | 57 | 1027.1 |
| 20260505165002 | 16 | 96 | 9.7 | 16.1 | 0.00 | 0.00 | 0.00 | 57 | 1027.1 |
| 20260505164002 | 16 | 114 | 6.4 | 20.9 | 0.00 | 0.00 | 0.00 | 57 | 1027.1 |
| 20260505163002 | 16 | 107 | 3.2 | 8.0 | 0.00 | 0.00 | 0.00 | 57 | 1027.0 |
| 20260505162002 | 16 | 94 | 6.4 | 12.9 | 0.00 | 0.00 | 0.00 | 57 | 1027.0 |
| 20260505161002 | 16 | 109 | 8.0 | 14.5 | 0.00 | 0.00 | 0.00 | 57 | 1026.9 |